Location: Dilsberg
(49.3983°N, 8.8354°E)
Time: 10:08:25
(UTC+00:00)

Meteor 1-5 Rocket - Pass Details

Date: 19 May 2025
Orbit: 788 x 913 km, 81.2° (Epoch: 23 June)

Event Time Altitude Azimuth Distance (km) Brightness Sun altitude
Rises 20:20:30 0° 346° (NNW) 3,548 8.6 -9.9°
Reaches altitude 10° 20:22:58 10° 346° (NNW) 2,609 7.8 -10.2°
Maximum altitude 20:28:57 79° 261° (W) 935 4.5 -10.8°
Drops below altitude 10° 20:34:52 10° 175° (S) 2,586 6.2 -11.4°
Enters shadow 20:35:12 - 175° (S) 2,707 6.3 -11.5°
